• In Belarus
  • List of Countries
  • For 7 days
  • Water Temperature
  • Weather Map
  • Weather Widgets
  • user-avatar
    Login

    Hourly Weather Las Rozas de Madrid

    Today, 19 January, Sunday

    Time Temperature Precipitation Wind Pressure Humidity
    00:00 +5°C° 0 mm 5 mps 701 mmHg 76%
    01:00 +4°C° 0 mm 4 mps 701 mmHg 78%
    02:00 +4°C° 0 mm 4 mps 701 mmHg 79%
    03:00 +4°C° 0 mm 4 mps 701 mmHg 80%
    04:00 +4°C° 0.1 mm 4 mps 701 mmHg 80%
    05:00 +3°C° 0.1 mm 4 mps 701 mmHg 81%
    06:00 +3°C° 0 mm 4 mps 701 mmHg 80%
    07:00 +4°C° 0.1 mm 4 mps 701 mmHg 79%
    08:00 +4°C° 0.1 mm 4 mps 701 mmHg 79%
    09:00 +4°C° 0.1 mm 4 mps 701 mmHg 79%
    10:00 +5°C° 0 mm 6 mps 702 mmHg 66%
    11:00 +6°C° 0 mm 7 mps 702 mmHg 53%
    12:00 +7°C° 0 mm 9 mps 702 mmHg 40%
    13:00 +7°C° 0 mm 9 mps 702 mmHg 37%
    14:00 +6°C° 0 mm 10 mps 702 mmHg 33%
    15:00 +6°C° 0 mm 11 mps 702 mmHg 30%
    16:00 +5°C° 0 mm 10 mps 702 mmHg 32%
    17:00 +2°C° 0 mm 9 mps 703 mmHg 35%
    18:00 +1°C° 0 mm 8 mps 703 mmHg 37%
    19:00 0°C° 0 mm 8 mps 703 mmHg 40%
    20:00 -1°C° 0 mm 7 mps 703 mmHg 43%
    21:00 -1°C° 0 mm 6 mps 703 mmHg 46%
    22:00 -2°C° 0 mm 6 mps 704 mmHg 46%
    23:00 -2°C° 0 mm 6 mps 704 mmHg 46%

    Tomorrow, 20 January, Monday

    Time Temperature Precipitation Wind Pressure Humidity
    00:00 -1°C° 0 mm 5 mps 704 mmHg 46%
    01:00 -1°C° 0 mm 5 mps 704 mmHg 45%
    02:00 -1°C° 0 mm 5 mps 703 mmHg 43%
    03:00 -1°C° 0 mm 5 mps 703 mmHg 42%
    04:00 -1°C° 0 mm 5 mps 703 mmHg 42%
    05:00 -1°C° 0 mm 5 mps 703 mmHg 41%
    06:00 -1°C° 0 mm 5 mps 703 mmHg 41%
    07:00 -2°C° 0.1 mm 6 mps 703 mmHg 40%
    08:00 -1°C° 0.1 mm 6 mps 703 mmHg 40%
    09:00 -1°C° 0.1 mm 6 mps 703 mmHg 39%
    10:00 0°C° 0.1 mm 7 mps 703 mmHg 41%
    11:00 +1°C° 0.1 mm 8 mps 703 mmHg 43%
    12:00 +2°C° 0.1 mm 9 mps 703 mmHg 45%
    13:00 +2°C° 0.1 mm 9 mps 702 mmHg 48%
    14:00 +2°C° 0.1 mm 9 mps 702 mmHg 51%
    15:00 +2°C° 0.1 mm 9 mps 702 mmHg 55%
    16:00 +2°C° 0.2 mm 8 mps 702 mmHg 56%
    17:00 +1°C° 0.2 mm 8 mps 702 mmHg 58%
    18:00 +2°C° 0.2 mm 7 mps 702 mmHg 59%
    19:00 +2°C° 0.1 mm 7 mps 703 mmHg 56%
    20:00 +2°C° 0.1 mm 7 mps 703 mmHg 52%
    21:00 0°C° 0.1 mm 7 mps 703 mmHg 48%
    22:00 0°C° 0 mm 7 mps 703 mmHg 50%
    23:00 0°C° 0 mm 7 mps 703 mmHg 52%

    Day after tomorrow, 21 January, Tuesday

    Time Temperature Precipitation Wind Pressure Humidity
    00:00 0°C° 0 mm 7 mps 702 mmHg 53%
    01:00 0°C° 0 mm 7 mps 702 mmHg 55%
    02:00 0°C° 0 mm 7 mps 702 mmHg 56%
    03:00 +1°C° 0 mm 6 mps 701 mmHg 57%
    04:00 0°C° 0.1 mm 7 mps 701 mmHg 61%
    05:00 0°C° 0.1 mm 7 mps 700 mmHg 64%
    06:00 0°C° 0.1 mm 7 mps 700 mmHg 68%
    07:00 +2°C° 0 mm 7 mps 700 mmHg 68%
    08:00 +2°C° 0 mm 7 mps 700 mmHg 68%
    09:00 +3°C° 0 mm 7 mps 700 mmHg 69%
    10:00 +2°C° 0 mm 8 mps 700 mmHg 68%
    11:00 +4°C° 0 mm 8 mps 699 mmHg 67%
    12:00 +5°C° 0 mm 9 mps 699 mmHg 66%
    13:00 +5°C° 0.2 mm 9 mps 698 mmHg 69%
    14:00 +5°C° 0.2 mm 9 mps 698 mmHg 73%
    15:00 +5°C° 0.2 mm 9 mps 697 mmHg 76%
    16:00 +5°C° 0.8 mm 9 mps 697 mmHg 79%
    17:00 +5°C° 0.8 mm 9 mps 697 mmHg 81%
    18:00 +3°C° 0.8 mm 9 mps 697 mmHg 83%
    19:00 +3°C° 1.8 mm 9 mps 697 mmHg 85%
    20:00 +3°C° 1.8 mm 9 mps 697 mmHg 86%
    21:00 +3°C° 1.8 mm 9 mps 698 mmHg 87%
    22:00 +4°C° 0.5 mm 8 mps 698 mmHg 86%
    23:00 +4°C° 0.5 mm 8 mps 698 mmHg 84%

    22 January, Wednesday

    Time Temperature Precipitation Wind Pressure Humidity
    00:00 +3°C° 0.5 mm 7 mps 698 mmHg 83%
    01:00 +3°C° 0 mm 7 mps 697 mmHg 83%
    02:00 +3°C° 0 mm 7 mps 697 mmHg 83%
    03:00 +3°C° 0 mm 7 mps 697 mmHg 83%
    04:00 +3°C° 0 mm 6 mps 697 mmHg 84%
    05:00 +2°C° 0 mm 5 mps 697 mmHg 84%
    06:00 +2°C° 0 mm 5 mps 697 mmHg 85%
    07:00 +3°C° 0 mm 5 mps 697 mmHg 83%
    08:00 +3°C° 0 mm 5 mps 698 mmHg 82%
    09:00 +3°C° 0 mm 5 mps 699 mmHg 81%
    10:00 +5°C° 0 mm 4 mps 698 mmHg 76%
    11:00 +6°C° 0 mm 4 mps 698 mmHg 72%
    12:00 +8°C° 0 mm 3 mps 698 mmHg 67%
    13:00 +8°C° 0 mm 3 mps 698 mmHg 64%
    14:00 +9°C° 0 mm 2 mps 697 mmHg 60%
    15:00 +9°C° 0 mm 2 mps 697 mmHg 57%
    16:00 +8°C° 0.1 mm 3 mps 697 mmHg 64%
    17:00 +6°C° 0.1 mm 4 mps 697 mmHg 70%
    18:00 +5°C° 0.1 mm 5 mps 697 mmHg 77%
    19:00 +4°C° 0 mm 4 mps 698 mmHg 78%
    20:00 +4°C° 0 mm 4 mps 698 mmHg 79%
    21:00 +3°C° 0 mm 3 mps 698 mmHg 81%
    22:00 +3°C° 0 mm 3 mps 698 mmHg 81%
    23:00 +3°C° 0 mm 3 mps 698 mmHg 81%

    23 January, Thursday

    Time Temperature Precipitation Wind Pressure Humidity
    00:00 +3°C° 0 mm 3 mps 698 mmHg 81%
    01:00 +3°C° 0 mm 3 mps 698 mmHg 82%
    02:00 +3°C° 0 mm 3 mps 698 mmHg 82%
    03:00 +3°C° 0 mm 3 mps 698 mmHg 83%
    04:00 +3°C° 0 mm 3 mps 698 mmHg 82%
    05:00 +3°C° 0 mm 4 mps 698 mmHg 82%
    06:00 +3°C° 0 mm 4 mps 698 mmHg 82%
    07:00 +3°C° 0 mm 4 mps 698 mmHg 81%
    08:00 +3°C° 0 mm 4 mps 699 mmHg 80%
    09:00 +4°C° 0 mm 4 mps 699 mmHg 78%
    10:00 +4°C° 0 mm 4 mps 699 mmHg 77%
    11:00 +5°C° 0 mm 4 mps 699 mmHg 76%
    12:00 +7°C° 0 mm 3 mps 699 mmHg 75%
    13:00 +7°C° 0.1 mm 3 mps 699 mmHg 75%
    14:00 +7°C° 0.1 mm 3 mps 698 mmHg 75%
    15:00 +8°C° 0.1 mm 2 mps 698 mmHg 75%
    16:00 +7°C° 0.2 mm 2 mps 698 mmHg 78%
    17:00 +7°C° 0.2 mm 2 mps 699 mmHg 80%
    18:00 +6°C° 0.2 mm 2 mps 699 mmHg 83%
    19:00 +6°C° 0.2 mm 2 mps 699 mmHg 84%
    20:00 +5°C° 0.2 mm 3 mps 700 mmHg 86%
    21:00 +5°C° 0.2 mm 3 mps 700 mmHg 87%
    22:00 +5°C° 0.1 mm 3 mps 700 mmHg 87%
    23:00 +5°C° 0.1 mm 3 mps 700 mmHg 87%

    24 January, Friday

    Time Temperature Precipitation Wind Pressure Humidity
    00:00 +5°C° 0.1 mm 2 mps 701 mmHg 87%
    01:00 +5°C° 0 mm 2 mps 700 mmHg 87%
    02:00 +5°C° 0 mm 2 mps 700 mmHg 88%
    03:00 +5°C° 0 mm 2 mps 700 mmHg 88%
    04:00 +5°C° 0 mm 2 mps 700 mmHg 88%
    05:00 +5°C° 0 mm 2 mps 700 mmHg 88%
    06:00 +5°C° 0 mm 2 mps 700 mmHg 88%
    07:00 +5°C° 0.3 mm 2 mps 700 mmHg 90%
    08:00 +5°C° 0.3 mm 2 mps 700 mmHg 91%
    09:00 +5°C° 0.3 mm 2 mps 701 mmHg 92%
    10:00 +5°C° 0.6 mm 2 mps 701 mmHg 90%
    11:00 +6°C° 0.6 mm 2 mps 701 mmHg 89%
    12:00 +6°C° 0.6 mm 2 mps 701 mmHg 87%
    13:00 +6°C° 0.1 mm 2 mps 700 mmHg 85%
    14:00 +7°C° 0.1 mm 2 mps 700 mmHg 82%
    15:00 +7°C° 0.1 mm 2 mps 700 mmHg 80%
    16:00 +7°C° 0.2 mm 2 mps 700 mmHg 82%
    17:00 +7°C° 0.2 mm 2 mps 700 mmHg 85%
    18:00 +7°C° 0.2 mm 2 mps 700 mmHg 87%
    19:00 +6°C° 1.2 mm 2 mps 700 mmHg 89%
    20:00 +6°C° 1.2 mm 2 mps 700 mmHg 92%
    21:00 +6°C° 1.2 mm 2 mps 701 mmHg 94%
    22:00 +6°C° 0.9 mm 2 mps 701 mmHg 94%
    23:00 +6°C° 0.9 mm 2 mps 701 mmHg 94%
    Show more